TimeEST,TemperatureF,Dew PointF,Humidity,Sea Level PressureIn,VisibilityMPH,Wind Direction,Wind SpeedMPH,Gust SpeedMPH,PrecipitationIn,Events,Conditions,WindDirDegrees,DateUTC
12:15 AM,68.0,66.2,94,29.97,4.0,SSW,3.5,-,N/A,,Clear,210,2013-02-24 05:15:00
12:35 AM,68.0,68.0,100,29.97,2.5,SSW,3.5,-,N/A,,Unknown,210,2013-02-24 05:35:00
12:55 AM,68.0,68.0,100,29.97,2.5,SSW,4.6,-,N/A,,Overcast,210,2013-02-24 05:55:00
1:15 AM,69.8,69.8,100,29.97,0.2,SW,5.8,-,N/A,,Overcast,220,2013-02-24 06:15:00
1:35 AM,69.8,69.8,100,29.97,0.2,SW,5.8,-,N/A,,Overcast,220,2013-02-24 06:35:00
1:55 AM,69.8,69.8,100,29.96,0.2,South,3.5,-,N/A,,Overcast,190,2013-02-24 06:55:00
2:15 AM,69.8,69.8,100,29.96,0.2,South,4.6,-,N/A,,Overcast,190,2013-02-24 07:15:00
2:35 AM,68.0,68.0,100,29.96,0.2,SSW,4.6,-,N/A,,Overcast,200,2013-02-24 07:35:00
2:55 AM,68.0,68.0,100,29.95,0.2,SW,4.6,-,N/A,,Overcast,220,2013-02-24 07:55:00
3:15 AM,68.0,68.0,100,29.94,0.2,South,5.8,-,N/A,,Overcast,190,2013-02-24 08:15:00
3:35 AM,68.0,68.0,100,29.94,0.5,SW,5.8,-,N/A,,Overcast,220,2013-02-24 08:35:00
3:55 AM,68.0,68.0,100,29.94,0.5,SW,8.1,-,N/A,,Overcast,230,2013-02-24 08:55:00
4:15 AM,68.0,68.0,100,29.94,1.5,SW,4.6,-,N/A,,Overcast,230,2013-02-24 09:15:00
4:35 AM,68.0,68.0,100,29.94,2.0,SSW,4.6,-,N/A,,Overcast,200,2013-02-24 09:35:00
4:55 AM,68.0,68.0,100,29.94,2.5,SSW,5.8,-,N/A,,Overcast,200,2013-02-24 09:55:00
5:15 AM,68.0,68.0,100,29.94,2.0,South,6.9,-,N/A,,Overcast,170,2013-02-24 10:15:00
5:35 AM,68.0,68.0,100,29.94,1.2,South,5.8,-,N/A,,Overcast,180,2013-02-24 10:35:00
5:55 AM,68.0,68.0,100,29.95,3.0,SSW,5.8,-,N/A,,Overcast,210,2013-02-24 10:55:00
6:15 AM,68.0,68.0,100,29.96,3.0,SSW,5.8,-,N/A,,Overcast,210,2013-02-24 11:15:00
6:35 AM,68.0,68.0,100,29.96,4.0,SSW,5.8,-,N/A,,Overcast,210,2013-02-24 11:35:00
6:55 AM,68.0,68.0,100,29.97,3.0,South,6.9,-,N/A,,Overcast,190,2013-02-24 11:55:00
7:15 AM,68.0,68.0,100,29.98,2.0,SW,6.9,-,N/A,,Overcast,220,2013-02-24 12:15:00
7:35 AM,68.0,68.0,100,29.99,2.0,SSW,4.6,-,N/A,,Overcast,210,2013-02-24 12:35:00
7:55 AM,68.0,68.0,100,29.99,2.0,SW,5.8,-,N/A,,Overcast,220,2013-02-24 12:55:00
8:15 AM,68.0,68.0,100,30.00,3.0,SSW,8.1,-,N/A,,Overcast,210,2013-02-24 13:15:00
8:35 AM,68.0,68.0,100,30.01,3.0,WSW,8.1,-,N/A,,Overcast,240,2013-02-24 13:35:00
8:55 AM,69.8,68.0,94,30.01,5.0,WSW,5.8,-,N/A,,Overcast,240,2013-02-24 13:55:00
9:15 AM,69.8,68.0,94,30.01,5.0,WSW,5.8,-,N/A,,Mostly Cloudy,240,2013-02-24 14:15:00
9:35 AM,73.4,68.0,83,30.01,7.0,SW,8.1,-,N/A,,Scattered Clouds,220,2013-02-24 14:35:00
9:55 AM,73.4,68.0,83,30.01,7.0,SW,8.1,-,N/A,,Clear,230,2013-02-24 14:55:00
10:15 AM,77.0,68.0,74,30.01,7.0,WSW,9.2,-,N/A,,Clear,250,2013-02-24 15:15:00
10:35 AM,78.8,68.0,69,30.00,10.0,SW,6.9,-,N/A,,Clear,220,2013-02-24 15:35:00
10:55 AM,80.6,69.8,70,29.99,10.0,South,9.2,-,N/A,,Clear,180,2013-02-24 15:55:00
11:15 AM,80.6,69.8,70,29.99,10.0,South,11.5,-,N/A,,Clear,190,2013-02-24 16:15:00
11:35 AM,80.6,69.8,70,29.98,10.0,SW,6.9,10.4,N/A,,Clear,230,2013-02-24 16:35:00
11:55 AM,82.4,68.0,62,29.97,10.0,South,6.9,16.1,N/A,,Clear,190,2013-02-24 16:55:00
12:15 PM,84.2,66.2,55,29.96,10.0,SW,9.2,-,N/A,,Clear,220,2013-02-24 17:15:00
12:35 PM,84.2,64.4,51,29.96,10.0,WSW,13.8,19.6,N/A,,Scattered Clouds,240,2013-02-24 17:35:00
12:55 PM,86.0,64.4,48,29.95,10.0,SSW,12.7,17.3,N/A,,Scattered Clouds,200,2013-02-24 17:55:00
1:15 PM,86.0,64.4,48,29.94,10.0,SW,8.1,-,N/A,,Mostly Cloudy,230,2013-02-24 18:15:00
1:35 PM,86.0,62.6,45,29.93,10.0,WSW,8.1,-,N/A,,Mostly Cloudy,250,2013-02-24 18:35:00
1:55 PM,82.4,69.8,66,29.93,10.0,SE,5.8,-,N/A,,Mostly Cloudy,130,2013-02-24 18:55:00
2:15 PM,84.2,68.0,58,29.93,10.0,South,4.6,-,N/A,,Mostly Cloudy,190,2013-02-24 19:15:00
2:35 PM,86.0,69.8,58,29.92,10.0,ESE,3.5,-,N/A,,Scattered Clouds,120,2013-02-24 19:35:00
2:55 PM,84.2,68.0,58,29.91,10.0,SSE,5.8,-,N/A,,Mostly Cloudy,150,2013-02-24 19:55:00
3:15 PM,86.0,66.2,51,29.91,10.0,SSE,4.6,-,N/A,,Mostly Cloudy,160,2013-02-24 20:15:00
3:35 PM,86.0,68.0,55,29.91,10.0,SE,6.9,-,N/A,,Mostly Cloudy,140,2013-02-24 20:35:00
3:55 PM,86.0,66.2,51,29.91,10.0,South,6.9,-,N/A,,Overcast,180,2013-02-24 20:55:00
4:15 PM,86.0,66.2,51,29.91,10.0,SSE,4.6,-,N/A,,Mostly Cloudy,150,2013-02-24 21:15:00
4:35 PM,84.2,66.2,55,29.91,10.0,SSE,4.6,-,N/A,,Scattered Clouds,160,2013-02-24 21:35:00
4:55 PM,86.0,64.4,48,29.91,10.0,SSW,3.5,-,N/A,,Scattered Clouds,200,2013-02-24 21:55:00
5:15 PM,84.2,64.4,51,29.91,10.0,Calm,Calm,-,N/A,,Scattered Clouds,0,2013-02-24 22:15:00
5:35 PM,86.0,64.4,48,29.91,10.0,South,4.6,-,N/A,,Mostly Cloudy,190,2013-02-24 22:35:00
5:55 PM,82.4,66.2,58,29.91,10.0,NNW,8.1,-,N/A,,Mostly Cloudy,340,2013-02-24 22:55:00
6:15 PM,78.8,68.0,69,29.93,10.0,North,8.1,-,N/A,,Scattered Clouds,350,2013-02-24 23:15:00
6:35 PM,77.0,68.0,74,29.93,10.0,North,9.2,-,N/A,,Scattered Clouds,10,2013-02-24 23:35:00
6:55 PM,75.2,68.0,78,29.93,10.0,NNE,9.2,-,N/A,,Clear,20,2013-02-24 23:55:00
7:15 PM,73.4,68.0,83,29.94,10.0,NNE,6.9,-,N/A,,Scattered Clouds,30,2013-02-25 00:15:00
7:35 PM,73.4,68.0,83,29.95,10.0,NNE,5.8,-,N/A,,Scattered Clouds,20,2013-02-25 00:35:00
7:55 PM,71.6,68.0,88,29.95,10.0,NNE,6.9,-,N/A,,Clear,30,2013-02-25 00:55:00
8:15 PM,71.6,68.0,88,29.96,10.0,North,6.9,-,N/A,,Clear,10,2013-02-25 01:15:00
8:35 PM,71.6,68.0,88,29.96,10.0,North,9.2,-,N/A,,Clear,10,2013-02-25 01:35:00
8:55 PM,69.8,68.0,94,29.96,7.0,NNE,8.1,-,N/A,,Clear,20,2013-02-25 01:55:00
9:15 PM,69.8,68.0,94,29.97,10.0,NNE,6.9,-,N/A,,Clear,20,2013-02-25 02:15:00
9:35 PM,69.8,68.0,94,29.98,7.0,NNE,6.9,-,N/A,,Clear,30,2013-02-25 02:35:00
9:55 PM,69.8,68.0,94,29.97,7.0,North,5.8,-,N/A,,Clear,10,2013-02-25 02:55:00
10:15 PM,69.8,68.0,94,29.96,7.0,NNE,4.6,-,N/A,,Clear,20,2013-02-25 03:15:00
10:35 PM,68.0,68.0,100,29.96,7.0,Calm,Calm,-,N/A,,Clear,0,2013-02-25 03:35:00
10:55 PM,68.0,68.0,100,29.95,7.0,Calm,Calm,-,N/A,,Clear,0,2013-02-25 03:55:00
11:15 PM,68.0,68.0,100,29.94,5.0,Calm,Calm,-,N/A,,Clear,0,2013-02-25 04:15:00
11:35 PM,68.0,68.0,100,29.94,5.0,Calm,Calm,-,N/A,,Clear,0,2013-02-25 04:35:00
11:55 PM,68.0,68.0,100,29.94,5.0,Calm,Calm,-,N/A,,Clear,0,2013-02-25 04:55:00